Teemu Ojala

Recruteur - HJK
4 Juin 2028
Dimanche
Processus

Personnalité

Adaptabilité (3) Ambition (11) Controverse (19) Loyauté (18) Pression (5) Professionnalisme (17) Sportivité (4) Tempérament (7)

Profil

Style d'entraînement Démocratique
Diplôme Continental Pro
Détermination 4
Gestion des joueurs 10
Motivation 8
Discipline 4
Satisfaction professionnelle
100%
Fatigue
0%
Rôle Recruteur
Salaire 71.2K p/s
Contrat 14.03.2029

Performance

Comportement Bon
Efficacité de l'entraînement
41%
Développement des joueurs
20%
Prévention des blessures
25%
Mise en place tactique
60%

Événements récents

Anniversaire 56j

Suivi en cours

49
Joueur Club Statut Capacité Confiance Observé Dernière observation Dernier vote
Jenson Metcalfe Bradford City Actif 130 / 109 40% 4 01.04.2028 -
Georgie Gent Barnsley Actif 109 / 116 40% 3 01.04.2028 -
Reuell Walters Luton Town Actif 131 / 105 40% 1 01.04.2028 -
James Dornelly Peterborough United Actif 103 / 127 40% 1 30.03.2028 -
Matthew Sorinola Oldham Athletic Actif 103 / 116 40% 1 30.03.2028 -
Gavin Kilkenny Swindon Town Négociation 122 / 121 40% 1 30.03.2028 -
André Miranda Porto Actif 116 / 118 40% 1 30.03.2028 -
Jaden Williams Colchester United Actif 82 / 85 40% 1 30.03.2028 -
Marcus Ifill Bromley Actif 120 / 126 40% 1 30.03.2028 -
Ar'jany Martha Rotherham United Actif 127 / 114 40% 2 29.03.2028 -
Callum Styles West Bromwich Albion Actif 131 / 130 40% 2 29.03.2028 -
Marko Farji Venezia Actif 117 / 106 40% 2 29.03.2028 -
George Earthy Reading Actif 109 / 119 40% 1 29.03.2028 -
Ryan Barnett Crawley Town Actif 118 / 115 40% 1 29.03.2028 -
Brodie Spencer Oxford United Actif 130 / 145 40% 1 29.03.2028 -
Ryan Oné Sheffield United Actif 132 / 134 40% 1 28.03.2028 -
Dale Taylor Blackpool Actif 120 / 108 40% 1 28.03.2028 -
Louie Barry Sheffield Wednesday Actif 137 / 123 40% 1 28.03.2028 -
Sabo Gambo Inter Allies Actif 102 / 109 40% 2 27.03.2028 -
Vanja Vlahović Spezia Actif 139 / 131 40% 1 27.03.2028 -
Giacomo Sali AlbinoLeffe Actif 101 / 113 40% 1 27.03.2028 -
Brandon Khela Peterborough United Actif 100 / 117 40% 1 24.03.2028 -
Tudor Mendel-Idowu Fleetwood Town Actif 92 / 81 40% 1 24.03.2028 -
Patrick Kelly Barnsley Actif 119 / 105 40% 3 23.03.2028 -
Kelly Saravanan Salford City Actif 119 / 118 40% 3 23.03.2028 -
Calum Kavanagh Oldham Athletic Actif 116 / 103 40% 1 23.03.2028 -
George Hall Port Vale Actif 115 / 119 40% 2 21.03.2028 -
Giuseppe Pezzella Cremonese Actif 145 / 145 40% 1 21.03.2028 -
Jeremy Ngakia Watford Actif 135 / 120 40% 1 21.03.2028 -
Radinio Balker Huddersfield Town Actif 133 / 112 40% 1 21.03.2028 -
Stiven Shpendi Empoli Actif 125 / 120 40% 1 21.03.2028 -
Mathis Servais Millwall Actif 114 / 119 40% 1 19.03.2028 -
Pablo Viudez Shrewsbury Town Actif 114 / 88 40% 4 16.03.2028 -
Joe Knight Stevenage Actif 101 / 117 40% 1 16.03.2028 -
Abu Kamara Portsmouth Actif 118 / 137 40% 1 15.03.2028 -
Olívio Tomé Benfica Actif 127 / 133 40% 1 14.03.2028 -
Jack Diamond Stockport County Actif 119 / 132 40% 1 07.03.2028 -
Ilyas Chaira Oviedo Actif 123 / 144 40% 1 07.03.2028 -
Ben Chrisene Norwich City Actif 139 / 112 40% 1 01.03.2028 -
Alex Lowry Wycombe Wanderers Actif 115 / 136 40% 1 01.03.2028 -
Kirill Tsepenkov Dnepr Mogilev Actif 100 / 107 40% 1 24.02.2028 -
Nikolay Ischenko Chaika Actif 97 / 109 40% 1 24.02.2028 -
Tomy Carbonell Real Sociedad Actif 120 / 127 40% 2 21.02.2028 -
Clayton Diandy Al-Diriyah Actif 106 / 119 40% 1 17.02.2028 -
Luca Martínez Dupuy Godoy Cruz Actif 132 / 129 40% 1 01.02.2028 -
Sam Nombe Milton Keynes Dons Actif 104 / 98 40% 1 01.02.2028 -
Miguel Pereira Persebaya Perdu 114 / 106 40% 1 01.02.2028 -
Patrick Obermüller KTP Actif 92 / 96 69% 1 26.07.2027 Approuver
Loic Essomba Inter Turku Actif 93 / 97 55% 1 03.08.2026 -